Location: Hilton Head Island
(32.2163°N, 80.7526°W)
Time: 07:44:39
(UTC-04:00)

Tiros 1 despin weight - Pass Details

Date: 21 February 2026
Orbit: 555 x 593 km, 48.2° (Epoch: 16 March)

Event Time Altitude Azimuth Distance (km) Brightness Sun altitude
Rises 15:20:37 0° 287° (WNW) 2,743 ? 32.2°
Reaches altitude 10° 15:24:07 10° 317° (NW) 1,841 ? 31.6°
Maximum altitude 15:25:57 13° 343° (NNW) 1,682 ? 31.3°
Drops below altitude 10° 15:27:47 10° 9° (N) 1,838 ? 31.0°
Sets 15:31:17 0° 40° (NE) 2,731 ? 30.4°
